| time (UTC) | temp C | wind direction | speed KPH | gust KPH | rain 1hr cm | rain 24hr cm | rain mn cm | humidity % | barometer mb |
| 20260507171505 | 17 | 333 | 9.7 | 0.0 | 0.00 | 0.00 | 0.00 | 52 | 1007.4 |
| 20260507170001 | 17 | 359 | 8.0 | 0.0 | 0.00 | 0.00 | 0.00 | 48 | 1007.7 |
| 20260507164606 | 17 | 305 | 11.3 | 0.0 | 0.00 | 0.00 | 0.00 | 48 | 1007.9 |
| 20260507163053 | 16 | 316 | 8.0 | 0.0 | 0.00 | 0.00 | 0.00 | 55 | 1008.2 |
| 20260507161604 | 16 | 274 | 6.4 | 0.0 | 0.00 | 0.00 | 0.00 | 50 | 1008.2 |
| 20260507160101 | 16 | 297 | 9.7 | 0.0 | 0.00 | 0.00 | 0.00 | 50 | 1008.5 |
| 20260507154541 | 16 | 314 | 9.7 | 0.0 | 0.00 | 0.00 | 0.00 | 56 | 1008.4 |
| 20260507153036 | 15 | 305 | 9.7 | 0.0 | 0.00 | 0.00 | 0.00 | 58 | 1008.8 |
| 20260507151531 | 15 | 298 | 6.4 | 0.0 | 0.00 | 0.00 | 0.00 | 60 | 1008.9 |
| 20260507150029 | 14 | 311 | 9.7 | 0.0 | 0.00 | 0.00 | 0.00 | 58 | 1009.4 |
| 20260507144541 | 12 | 295 | 6.4 | 0.0 | 0.00 | 0.00 | 0.00 | 66 | 1009.6 |
| 20260507143029 | 12 | 335 | 4.8 | 0.0 | 0.00 | 0.00 | 0.00 | 64 | 1009.7 |
| 20260507141528 | 11 | 290 | 9.7 | 0.0 | 0.00 | 0.00 | 0.00 | 65 | 1009.8 |
| 20260507140029 | 11 | 288 | 6.4 | 0.0 | 0.00 | 0.00 | 0.00 | 68 | 1010.1 |
| 20260507134525 | 11 | 330 | 8.0 | 0.0 | 0.00 | 0.00 | 0.00 | 69 | 1010.3 |
| 20260507133024 | 11 | 325 | 9.7 | 0.0 | 0.00 | 0.00 | 0.00 | 67 | 1010.1 |
| 20260507131528 | 11 | 302 | 8.0 | 0.0 | 0.00 | 0.00 | 0.00 | 67 | 1010.2 |
| 20260507130030 | 11 | 353 | 4.8 | 0.0 | 0.00 | 0.00 | 0.00 | 68 | 1010.2 |
| 20260507124522 | 11 | 354 | 6.4 | 0.0 | 0.00 | 0.00 | 0.00 | 69 | 1010.4 |
| 20260507123029 | 11 | 274 | 6.4 | 0.0 | 0.00 | 0.00 | 0.00 | 65 | 1010.1 |
| 20260507121521 | 11 | 323 | 6.4 | 0.0 | 0.00 | 0.00 | 0.00 | 67 | 1010.0 |
| 20260507120019 | 11 | 274 | 1.6 | 0.0 | 0.00 | 0.00 | 0.00 | 68 | 1010.0 |
| 20260507114519 | 11 | 323 | 4.8 | 0.0 | 0.00 | 0.00 | 0.00 | 66 | 1009.9 |
| 20260507113026 | 11 | 333 | 6.4 | 0.0 | 0.00 | 0.00 | 0.00 | 67 | 1009.5 |
| 20260507111516 | 11 | 326 | 8.0 | 0.0 | 0.00 | 0.00 | 0.00 | 65 | 1009.7 |
| 20260507110014 | 11 | 307 | 4.8 | 0.0 | 0.00 | 0.00 | 0.00 | 65 | 1009.7 |
| 20260507104511 | 11 | 347 | 3.2 | 0.0 | 0.00 | 0.00 | 0.00 | 68 | 1009.4 |
| 20260507103010 | 11 | 359 | 4.8 | 0.0 | 0.00 | 0.00 | 0.00 | 69 | 1009.2 |
| 20260507101514 | 11 | 4 | 1.6 | 0.0 | 0.00 | 0.00 | 0.00 | 70 | 1008.9 |
| 20260507100007 | 11 | 342 | 3.2 | 0.0 | 0.00 | 0.00 | 0.00 | 72 | 1008.9 |
| 20260507094506 | 11 | 69 | 3.2 | 0.0 | 0.00 | 0.00 | 0.00 | 73 | 1008.8 |
| 20260507093003 | 11 | 341 | 4.8 | 0.0 | 0.00 | 0.00 | 0.00 | 74 | 1008.7 |
| 20260507091503 | 11 | 347 | 4.8 | 0.0 | 0.00 | 0.00 | 0.00 | 76 | 1008.5 |
| 20260507090000 | 11 | 21 | 0.0 | 0.0 | 0.00 | 0.00 | 0.00 | 80 | 1008.6 |
| 20260507084601 | 11 | 357 | 1.6 | 0.0 | 0.00 | 0.00 | 0.00 | 78 | 1008.4 |
| 20260507083059 | 12 | 274 | 3.2 | 0.0 | 0.00 | 0.00 | 0.00 | 78 | 1008.3 |
| 20260507081557 | 12 | 339 | 3.2 | 0.0 | 0.00 | 0.00 | 0.00 | 78 | 1008.3 |
| 20260507080056 | 12 | 330 | 8.0 | 0.0 | 0.00 | 0.00 | 0.00 | 78 | 1007.8 |
| 20260507074559 | 12 | 354 | 6.4 | 0.0 | 0.00 | 0.00 | 0.00 | 78 | 1007.8 |
| 20260507073055 | 12 | 328 | 8.0 | 0.0 | 0.00 | 0.00 | 0.00 | 78 | 1007.8 |
| 20260507071554 | 12 | 325 | 8.0 | 0.0 | 0.00 | 0.00 | 0.00 | 78 | 1007.7 |
| 20260507070054 | 12 | 328 | 8.0 | 0.0 | 0.00 | 0.00 | 0.00 | 78 | 1007.7 |
| 20260507064606 | 12 | 310 | 6.4 | 0.0 | 0.00 | 0.00 | 0.00 | 78 | 1007.8 |
| 20260507063054 | 12 | 1 | 8.0 | 0.0 | 0.00 | 0.00 | 0.00 | 78 | 1008.2 |
| 20260507061548 | 12 | 314 | 9.7 | 0.0 | 0.00 | 0.00 | 0.00 | 78 | 1008.3 |
| 20260507060052 | 12 | 321 | 8.0 | 0.0 | 0.00 | 0.00 | 0.00 | 80 | 1008.2 |
| 20260507054544 | 12 | 299 | 6.4 | 0.0 | 0.00 | 0.00 | 0.00 | 81 | 1008.2 |
| 20260507053042 | 12 | 295 | 4.8 | 0.0 | 0.00 | 0.00 | 0.00 | 83 | 1007.8 |
| 20260507051538 | 13 | 330 | 4.8 | 0.0 | 0.00 | 0.00 | 0.00 | 83 | 1008.1 |
| 20260507050040 | 13 | 317 | 8.0 | 0.0 | 0.00 | 0.00 | 0.00 | 82 | 1008.2 |
| 20260507044535 | 13 | 283 | 6.4 | 0.0 | 0.00 | 0.00 | 0.00 | 82 | 1007.8 |
| 20260507043033 | 13 | 315 | 6.4 | 0.0 | 0.00 | 0.00 | 0.00 | 82 | 1008.2 |
| 20260507041546 | 13 | 295 | 4.8 | 0.0 | 0.00 | 0.00 | 0.00 | 82 | 1007.9 |
| 20260507040027 | 13 | 283 | 9.7 | 0.0 | 0.00 | 0.00 | 0.00 | 81 | 1007.9 |
| 20260507034526 | 13 | 313 | 14.5 | 0.0 | 0.00 | 0.00 | 0.03 | 80 | 1007.8 |
| 20260507033021 | 14 | 263 | 9.7 | 0.0 | 0.00 | 0.00 | 0.03 | 80 | 1007.4 |
| 20260507031518 | 14 | 312 | 11.3 | 0.0 | 0.00 | 0.00 | 0.03 | 79 | 1007.6 |
| 20260507030017 | 14 | 336 | 14.5 | 0.0 | 0.00 | 0.00 | 0.03 | 80 | 1007.6 |
| 20260507024514 | 15 | 333 | 9.7 | 0.0 | 0.00 | 0.00 | 0.03 | 81 | 1007.1 |
| 20260507023011 | 15 | 314 | 11.3 | 0.0 | 0.00 | 0.00 | 0.03 | 82 | 1007.2 |
| 20260507021509 | 15 | 316 | 9.7 | 0.0 | 0.00 | 0.00 | 0.03 | 83 | 1006.8 |
| 20260507020009 | 15 | 330 | 9.7 | 0.0 | 0.00 | 0.00 | 0.03 | 83 | 1006.9 |
| 20260507014517 | 16 | 309 | 8.0 | 0.0 | 0.00 | 0.00 | 0.03 | 85 | 1007.0 |
| 20260507013024 | 16 | 290 | 6.4 | 0.0 | 0.00 | 0.00 | 0.03 | 85 | 1006.7 |
| 20260507011506 | 16 | 300 | 9.7 | 0.0 | 0.00 | 0.00 | 0.03 | 85 | 1006.6 |
| 20260507010006 | 16 | 23 | 8.0 | 0.0 | 0.00 | 0.00 | 0.03 | 87 | 1006.7 |
| 20260507004504 | 16 | 327 | 11.3 | 0.0 | 0.00 | 0.00 | 0.03 | 87 | 1006.6 |
| 20260507003004 | 17 | 302 | 11.3 | 0.0 | 0.00 | 0.00 | 0.03 | 86 | 1006.6 |
| 20260507001503 | 17 | 297 | 9.7 | 0.0 | 0.00 | 0.00 | 0.03 | 85 | 1006.3 |
| 20260507000012 | 18 | 287 | 9.7 | 0.0 | 0.00 | 0.00 | 0.03 | 86 | 1006.2 |
| 20260506234504 | 18 | 300 | 8.0 | 0.0 | 0.00 | 0.00 | 0.03 | 86 | 1006.0 |
| 20260506233003 | 18 | 244 | 3.2 | 0.0 | 0.00 | 0.00 | 0.03 | 86 | 1005.5 |
| 20260506231502 | 19 | 245 | 3.2 | 0.0 | 0.00 | 0.00 | 0.03 | 85 | 1005.3 |
| 20260506230001 | 19 | 194 | 0.0 | 0.0 | 0.00 | 0.00 | 0.03 | 84 | 1004.9 |
| 20260506224501 | 19 | 241 | 0.0 | 0.0 | 0.00 | 0.00 | 0.03 | 85 | 1005.0 |
| 20260506223004 | 19 | 241 | 0.0 | 0.0 | 0.00 | 0.00 | 0.03 | 85 | 1004.9 |
| 20260506221604 | 19 | 241 | 1.6 | 0.0 | 0.00 | 0.00 | 0.03 | 86 | 1004.9 |
| 20260506220100 | 19 | 240 | 1.6 | 0.0 | 0.00 | 0.00 | 0.03 | 85 | 1004.7 |
| 20260506214610 | 19 | 250 | 0.0 | 0.0 | 0.00 | 0.00 | 0.03 | 84 | 1004.8 |
| 20260506213059 | 19 | 222 | 3.2 | 0.0 | 0.00 | 0.00 | 0.03 | 84 | 1004.8 |
| 20260506211559 | 19 | 193 | 4.8 | 0.0 | 0.00 | 0.00 | 0.03 | 82 | 1004.5 |
| 20260506210116 | 20 | 230 | 4.8 | 0.0 | 0.00 | 0.00 | 0.03 | 81 | 1004.2 |
| 20260506204558 | 20 | 189 | 6.4 | 0.0 | 0.00 | 0.00 | 0.03 | 80 | 1003.9 |
| 20260506203102 | 20 | 187 | 8.0 | 0.0 | 0.00 | 0.00 | 0.03 | 80 | 1004.0 |
| 20260506201556 | 20 | 262 | 8.0 | 0.0 | 0.00 | 0.00 | 0.03 | 81 | 1004.2 |
| 20260506200137 | 20 | 236 | 8.0 | 0.0 | 0.00 | 0.00 | 0.03 | 81 | 1004.2 |
| 20260506194604 | 20 | 144 | 9.7 | 0.0 | 0.00 | 0.00 | 0.03 | 80 | 1004.2 |
| 20260506193055 | 20 | 257 | 8.0 | 0.0 | 0.00 | 0.00 | 0.03 | 80 | 1004.2 |
| 20260506191552 | 20 | 203 | 6.4 | 0.0 | 0.00 | 0.00 | 0.03 | 83 | 1004.4 |
| 20260506190051 | 20 | 183 | 9.7 | 0.0 | 0.00 | 0.00 | 0.03 | 80 | 1004.5 |
| 20260506184554 | 20 | 132 | 8.0 | 0.0 | 0.00 | 0.00 | 0.03 | 83 | 1004.3 |
| 20260506183053 | 19 | 173 | 11.3 | 0.0 | 0.00 | 0.00 | 0.03 | 81 | 1004.7 |
| 20260506181550 | 19 | 219 | 8.0 | 0.0 | 0.00 | 0.00 | 0.03 | 84 | 1004.7 |
| 20260506180053 | 18 | 192 | 8.0 | 0.0 | 0.00 | 0.00 | 0.03 | 83 | 1004.7 |
| 20260506174550 | 18 | 205 | 9.7 | 0.0 | 0.00 | 0.00 | 0.03 | 83 | 1004.8 |
| 20260506173059 | 18 | 182 | 11.3 | 0.0 | 0.00 | 0.00 | 0.03 | 86 | 1005.1 |